Probability
0 0 0 0 0 0 0 0 0 0 0 0 0 0 0 0 0 0 0 0 0 1 1 1 2 2 1 0 2 6 11 16 19 17 13 10 9 7 4 1 0 0 0 0
0 0 0 0 0 0 0 0 0 0 0 0 0 0 0 0 0 0 0 0 0 1 2 1 2 1 0 0 2 6 10 15 18 15 11 10 9 7 4 1 0 0 0 0
0 0 0 0 0 0 0 0 0 0 0 0 0 0 0 0 0 0 0 0 0 1 2 2 2 1 1 1 3 7 9 13 15 13 10 9 9 8 4 1 0 0 0 0
0 0 0 0 0 0 0 0 0 0 0 0 0 0 0 0 0 0 0 0 0 0 1 2 3 2 2 2 5 9 9 10 13 12 9 8 8 7 4 1 0 0 0 0
0 0 0 0 0 0 0 0 0 0 0 0 0 0 0 0 0 0 0 0 0 0 1 2 2 2 1 3 7 9 8 8 10 10 7 6 5 5 3 1 0 0 0 0
0 0 0 0 0 0 0 0 0 0 0 0 0 0 0 0 0 0 0 0 0 0 1 2 1 1 1 4 8 8 7 6 7 7 5 4 2 2 1 1 1 0 0 0
0 0 0 0 0 0 0 0 0 0 0 0 0 0 0 0 0 0 0 0 0 0 1 1 1 2 3 4 7 8 7 6 5 4 4 3 1 1 1 1 1 0 0 0
0 0 0 0 0 0 0 0 0 0 0 0 0 0 0 0 0 0 0 0 0 0 0 0 1 2 3 4 5 6 7 5 4 3 3 3 2 1 0 1 1 0 0 0
0 0 0 0 0 0 0 0 0 0 0 0 0 0 0 0 0 0 0 0 0 0 0 0 0 1 1 3 4 4 4 5 4 3 2 2 2 1 0 0 0 0 0 0
0 0 0 0 0 0 0 0 0 0 0 0 0 0 0 0 0 0 0 0 0 0 0 0 0 0 1 2 2 1 1 3 3 3 2 2 2 2 1 0 0 0 0 0
0 0 0 0 0 0 0 0 0 0 0 0 0 0 0 0 0 0 0 0 0 0 0 0 0 0 0 1 1 1 0 1 2 3 3 2 2 2 2 1 0 0 0 0
0 0 0 0 0 0 0 0 0 0 0 0 0 0 0 0 0 0 0 0 0 0 0 0 0 0 0 0 0 0 0 0 1 2 3 3 1 1 1 1 0 1 1 1
0 0 0 0 0 0 0 0 0 0 0 0 0 0 0 0 0 0 0 0 0 0 0 0 0 0 0 0 0 0 0 0 1 2 3 3 2 1 0 0 1 2 2 2
0 0 0 0 0 0 0 0 0 0 0 0 0 0 0 0 0 0 0 0 0 0 0 0 0 0 0 0 0 0 0 1 2 2 3 4 3 1 0 0 1 3 4 4
0 0 0 0 0 0 0 0 0 0 0 0 0 0 0 0 0 0 0 0 0 0 0 0 0 0 0 0 0 0 0 1 2 2 2 2 2 2 1 0 1 4 6 5
0 0 0 0 0 0 0 0 0 0 0 0 0 0 0 0 0 0 0 0 0 0 0 0 0 0 0 0 0 0 0 0 1 1 1 1 1 1 2 1 2 5 7 7
0 0 0 0 0 0 0 0 0 0 0 0 0 0 0 0 0 0 0 0 0 0 0 0 0 0 0 0 0 0 0 0 0 0 0 0 0 1 2 2 2 4 7 9
0 0 0 0 0 0 0 0 0 0 0 0 0 0 0 0 0 0 0 0 0 0 0 0 0 0 0 0 0 0 0 0 0 0 0 0 0 0 1 3 4 4 5 7
0 0 0 0 0 0 0 0 0 0 0 0 0 0 0 0 0 0 0 0 0 0 0 0 0 0 0 0 0 0 0 0 0 0 0 0 0 0 2 4 5 4 4 5
0 0 0 0 0 0 0 0 0 0 0 0 0 0 0 0 0 0 0 0 0 0 0 0 0 0 0 0 0 0 0 0 0 0 0 0 1 1 2 4 4 4 3 4
0 0 0 0 0 0 0 0 0 0 0 0 0 0 0 0 0 0 0 0 0 0 0 0 0 0 0 0 0 0 0 0 0 0 0 0 0 0 1 3 4 4 3 3
0 0 0 0 0 0 0 0 0 0 0 0 0 0 0 0 0 0 0 0 0 0 0 0 0 0 0 0 0 0 0 0 0 0 0 0 0 1 1 3 4 3 3 2
0 0 0 0 0 0 0 0 0 0 0 0 0 0 0 0 0 0 0 0 0 0 0 0 0 0 0 0 0 0 0 0 0 0 0 0 1 2 3 3 3 3 2 1
0 0 0 0 0 0 0 0 0 0 0 0 0 0 0 0 0 0 0 0 0 0 0 0 0 0 0 0 0 0 0 0 0 0 0 0 2 3 3 3 2 1 1 0
0 0 0 0 0 0 0 0 0 0 0 0 0 0 0 0 0 0 0 0 0 0 0 0 0 0 0 0 0 0 0 0 0 0 0 0 1 2 2 2 2 0 0 0
0 0 0 0 0 0 0 0 0 0 0 0 0 0 0 0 0 0 0 0 0 0 0 0 0 0 0 0 0 0 0 0 0 0 0 0 0 1 1 2 2 1 0 0
Wind_Speed
2 4 5 7 8 11 12 13 16 15 13 13 16 19 18 15 14 15 15 14 15 15 14 13 13 14 14 14 15 16 16 16 14 11 11 11 11 11 11 11 14 15 14 14
4 5 6 8 10 10 12 13 15 13 10 12 15 18 17 14 14 13 13 13 13 12 11 11 12 13 14 15 16 16 16 16 16 13 11 10 11 11 11 10 13 15 15 15
7 7 7 8 9 9 12 12 12 13 15 12 12 14 13 9 9 9 10 11 11 10 10 11 11 12 13 15 16 14 16 16 17 16 11 9 9 9 10 12 12 15 16 16
6 4 7 9 10 10 11 9 11 12 11 8 7 10 9 7 7 8 9 9 9 8 9 9 10 11 13 14 13 15 15 15 16 16 14 15 13 13 13 12 12 14 16 16
7 7 9 10 9 9 9 11 11 12 11 10 9 9 7 5 7 7 7 7 8 8 8 9 10 11 11 11 11 13 14 15 15 16 17 17 15 13 11 13 15 15 14 16
8 7 7 8 9 9 9 10 10 8 6 7 6 7 6 3 6 6 5 5 6 6 6 7 7 8 9 9 9 11 14 15 16 17 17 18 18 16 15 17 15 14 12 13
7 4 3 5 8 6 6 7 4 3 3 5 4 6 5 5 6 6 6 6 5 4 4 5 6 7 8 9 10 11 13 15 16 17 17 19 19 19 19 17 17 15 12 12
7 7 4 5 7 7 7 5 5 5 6 7 6 7 3 5 6 5 5 5 5 5 5 5 6 6 7 8 10 12 13 14 15 17 17 17 19 15 14 17 15 16 13 14
7 8 7 8 7 6 5 4 5 6 7 7 6 5 4 5 5 6 6 6 6 6 5 6 6 5 6 7 9 12 13 13 14 15 17 17 18 18 17 17 17 14 13 13
5 10 9 7 5 3 6 6 4 4 5 7 8 6 3 4 6 7 8 8 8 7 7 7 6 6 6 6 7 9 12 13 13 14 14 13 17 18 17 16 17 16 16 15
5 7 8 6 4 7 4 3 4 4 5 6 7 4 2 5 6 8 9 9 9 9 8 7 7 6 6 5 5 7 9 11 12 13 14 15 16 16 17 16 17 17 16 17
4 6 8 10 6 5 5 4 4 5 5 6 8 7 1 4 7 9 10 10 10 10 8 8 7 7 6 5 5 6 8 10 11 12 13 14 15 15 16 16 17 17 16 17
4 5 8 6 2 1 4 5 6 7 7 8 9 8 3 7 9 11 11 11 11 10 9 8 8 6 6 5 5 5 6 8 9 10 11 12 14 15 16 17 16 16 16 15
7 6 9 12 12 9 12 12 10 8 8 10 14 16 14 14 14 14 13 12 12 11 10 9 8 8 7 6 6 5 6 7 8 9 11 12 14 15 15 15 15 15 15 15
4 8 11 16 17 16 17 18 15 14 15 14 16 18 18 16 15 14 13 13 12 11 10 9 9 8 8 7 6 6 6 6 7 9 10 11 12 12 12 13 14 15 15 15
4 8 10 14 13 14 18 19 17 16 16 18 20 20 15 15 14 13 12 12 12 11 11 10 10 9 9 8 7 6 6 6 6 8 9 10 10 11 12 12 13 13 14 14
5 5 7 10 10 13 13 10 11 11 11 12 15 15 14 14 14 13 12 11 11 12 11 11 10 9 9 8 8 7 6 5 6 7 7 8 9 10 11 11 12 13 14 13
7 6 6 8 9 10 5 3 6 10 12 11 12 13 13 14 14 13 10 11 12 12 11 11 10 9 9 8 8 7 6 5 5 6 6 7 8 9 10 11 12 12 12 12
11 7 6 5 8 13 10 5 4 8 11 8 10 12 12 13 13 10 7 10 12 11 11 10 10 10 9 8 7 6 5 4 4 5 6 6 7 8 9 11 11 11 11 11
8 9 7 7 9 10 5 2 4 6 8 3 6 9 10 11 10 9 11 12 12 11 10 10 10 9 8 7 6 6 5 4 5 5 5 6 7 8 9 10 10 9 9 10
6 8 10 12 11 11 6 1 2 5 6 5 7 8 9 9 10 13 14 13 12 11 11 11 9 8 8 7 6 6 5 5 5 4 4 5 6 7 8 8 8 9 8 9
8 7 8 7 10 10 1 2 5 7 7 8 10 10 11 12 13 14 14 13 13 12 12 11 9 9 8 7 6 6 6 5 4 3 4 5 5 5 6 7 8 9 9 10
10 10 6 9 10 8 4 7 8 8 10 11 12 12 12 14 14 15 14 14 13 13 12 11 11 10 8 6 5 6 6 5 4 3 3 3 4 4 6 7 8 8 9 9
8 8 9 12 14 13 12 11 10 9 11 13 13 13 13 15 15 15 14 13 13 13 12 11 10 9 8 7 6 6 5 4 3 3 3 3 4 4 5 5 6 7 8 9
11 8 10 15 16 14 13 12 11 12 12 14 14 14 14 14 15 15 13 13 12 12 12 11 10 9 9 7 6 5 4 3 3 3 3 3 4 5 5 4 4 6 6 8
12 13 12 13 12 11 12 12 12 13 13 13 14 14 13 13 14 14 13 12 12 12 11 10 10 9 9 7 6 5 4 3 3 3 3 3 3 4 5 5 3 3 4 7
Wind_Direction
292 259 270 288 279 279 284 282 286 289 291 284 274 275 275 272 268 263 260 256 248 246 241 231 226 221 215 212 209 204 199 193 186 183 183 183 185 181 182 183 183 184 184 185
291 275 293 296 288 280 277 281 287 292 292 289 282 280 277 267 263 262 258 257 252 245 235 224 220 217 212 210 207 204 200 195 192 190 187 188 187 186 183 181 185 187 187 187
298 302 309 299 302 293 283 278 288 295 301 286 284 280 270 265 257 257 258 258 258 251 235 224 218 215 212 209 205 202 200 197 195 190 185 184 186 185 185 186 186 189 190 191
300 307 304 300 301 299 294 292 290 290 291 290 285 288 279 272 262 255 252 252 253 255 243 229 223 218 213 210 205 202 199 197 196 191 190 189 192 191 191 185 185 188 192 193
303 310 310 305 308 303 296 302 290 284 283 282 265 263 277 276 272 264 257 258 258 254 246 234 228 224 218 211 206 203 199 199 196 196 194 196 201 198 190 185 186 188 191 194
287 291 293 299 304 294 296 297 286 267 265 263 265 259 283 299 288 286 274 270 273 271 262 253 243 234 227 217 209 206 203 202 198 198 198 201 203 197 191 187 185 187 189 193
323 298 293 301 310 307 309 314 305 281 252 273 295 263 275 321 310 297 299 299 299 298 292 276 259 241 232 221 212 207 207 206 202 201 202 205 204 200 198 193 189 187 188 192
322 315 334 324 315 308 306 297 303 305 301 309 290 262 291 326 323 316 314 313 319 324 321 307 289 264 244 229 218 210 211 211 205 203 205 208 205 202 201 199 192 192 192 193
317 301 313 310 303 290 298 292 294 288 285 278 270 274 287 338 352 358 353 346 349 343 337 327 314 289 263 243 228 217 214 216 208 207 206 208 206 203 202 200 197 196 194 190
298 290 302 314 294 254 282 303 291 273 288 284 286 281 298 347 350 352 352 350 347 340 335 333 325 310 285 259 244 230 221 220 214 211 210 208 207 205 202 201 199 196 193 190
288 282 298 307 304 305 297 281 288 279 281 288 293 299 5 335 333 335 338 338 336 337 332 329 326 315 299 274 253 239 228 224 217 214 214 209 208 206 203 203 201 197 194 191
284 278 285 286 285 288 268 276 287 288 286 276 281 283 7 324 329 328 328 330 330 331 330 328 328 322 308 292 271 253 236 227 220 217 217 212 207 205 205 204 202 197 194 192
286 268 291 291 225 220 276 272 275 281 276 264 265 271 309 319 322 321 318 321 325 328 330 330 327 321 313 294 278 266 251 237 224 219 220 214 206 204 205 205 201 196 193 191
282 252 253 276 292 299 287 281 273 260 258 264 260 277 292 304 311 314 314 314 318 323 327 328 322 320 315 303 285 274 265 252 233 220 219 214 208 205 204 203 201 195 191 189
267 264 260 268 276 278 274 276 272 256 251 259 273 281 290 300 307 310 310 309 311 316 319 323 320 318 316 308 296 283 275 262 243 224 220 215 210 204 201 201 198 193 190 188
252 268 279 275 271 275 273 269 266 262 256 257 269 277 287 297 302 305 308 309 309 311 312 315 316 315 312 308 298 291 283 269 249 229 222 214 206 201 198 197 194 190 188 186
241 254 273 279 295 290 267 262 256 255 252 257 265 276 296 300 302 306 308 310 309 309 309 309 308 307 308 306 298 287 279 272 251 235 222 209 204 202 194 191 191 188 186 184
234 241 259 283 295 262 269 309 279 272 268 262 270 285 297 300 303 300 300 307 308 307 306 306 305 306 305 302 297 288 280 267 245 232 220 208 202 200 192 189 189 188 184 182
218 227 250 262 272 277 280 277 271 273 276 273 283 295 302 306 298 288 305 313 308 306 303 302 301 300 299 299 298 289 283 274 252 234 218 209 205 199 192 190 187 185 181 180
205 220 242 248 263 269 287 356 317 283 270 299 305 305 311 316 303 310 326 314 309 306 305 304 300 297 295 299 298 287 282 274 258 244 225 212 206 200 195 192 187 181 178 176
196 214 230 244 254 266 280 298 291 267 303 329 306 304 305 301 296 306 311 311 310 308 306 306 300 294 293 295 293 286 282 277 267 251 232 217 206 200 195 190 183 175 171 167
217 218 220 228 241 256 192 197 241 279 308 299 300 301 299 298 300 303 305 306 308 309 308 309 302 294 292 291 287 283 283 287 279 249 232 217 206 194 185 180 177 171 166 165
223 223 233 229 248 285 262 251 268 283 287 294 296 298 298 298 300 302 302 304 303 303 306 307 302 296 291 288 281 280 286 290 282 255 231 214 203 189 178 175 173 170 169 166
236 233 244 257 261 270 274 274 277 282 285 290 293 295 295 295 298 299 299 301 302 302 305 307 305 296 293 291 283 278 284 285 265 248 226 206 192 182 179 174 174 173 174 170
246 233 243 257 269 278 268 265 275 285 288 291 293 291 290 291 293 296 296 299 300 300 302 302 299 294 291 290 285 282 281 279 261 240 220 207 194 181 174 173 180 182 186 179
232 229 239 255 264 266 279 286 287 286 287 292 294 293 292 291 292 294 294 296 297 298 300 300 299 296 294 290 285 282 275 267 252 233 216 206 194 182 166 154 133 123 157 155